Leadville, CO

6:59 PM MST on November 22, 2019 (GMT -0700)
Lake County

Weather History for KLXV - September, 2019

Change the Weather History Date:

Thursday, September 12, 2019

  Actual Average Record
Temperature  
Mean Temperature 43 °F -  
Max Temperature 57 °F 62 °F 74 °F (1990)
Min Temperature 29 °F 32 °F 25 °F (1986)
Degree Days  
Heating Degree Days 22 18  
Month to date heating degree days 143 199  
Since 1 July heating degree days 736 921  
Cooling Degree Days 0 0  
Month to date cooling degree days 0 0  
Year to date cooling degree days 0 0  
Moisture  
Dew Point 23 °F    
Average Humidity 49    
Maximum Humidity 75    
Minimum Humidity 22    
Precipitation  
Precipitation T in 0.04 in 0.61 in (2013)
Month to date precipitation 0.31 0.51  
Year to date precipitation 12.85 9.46  
Sea Level Pressure  
Sea Level Pressure 30.17 in    
Wind  
Wind Speed 10 mph (NNW)    
Max Wind Speed 18 mph    
Max Gust Speed 28 mph    
Visibility 9 miles    
Events      
T = Trace of Precipitation, MM = Missing Value Source: NWS Daily Summary

Daily Weather History Graph

Daily Weather History Graph

Search for Another Location

Airport or City:

Astronomy

Sep. 12, 2019 Rise Set
Actual Time 6:43 AM MDT 7:18 PM MDT
Civil Twilight 6:16 AM MDT 7:45 PM MDT
Nautical Twilight 5:44 AM MDT 8:17 PM MDT
Astronomical Twilight 5:12 AM MDT 8:49 PM MDT
Moon 7:03 PM MDT (9/12) 5:07 AM MDT (9/12)
Length of Visible Light 13h 28m
Length of Day
12h 35m
Waxing Gibbous, 98% of the Moon is Illuminated
Sep 12
Waxing Gibbous
Sep 13
Full
Sep 21
Last Quarter
Sep 28
New
Oct 5
First Quarter

Hourly Weather History & Observations

Time (MDT) Temp. Windchill Dew Point Humidity Pressure Visibility Wind Dir Wind Speed Gust Speed Precip Events Conditions
12:53 AM 37.9 °F 32.7 °F 28.0 °F 68% 29.99 in 10.0 mi Variable 6.9 mph - N/A   Overcast
1:53 AM 37.9 °F 30.9 °F 28.0 °F 68% 29.97 in 10.0 mi NNW 10.4 mph 26.5 mph N/A   Overcast
2:53 AM 35.1 °F 27.9 °F 28.9 °F 78% 29.99 in 10.0 mi NNW 9.2 mph - 0.00 in   Scattered Clouds
3:53 AM 36.0 °F 28.5 °F 27.0 °F 70% 29.99 in 10.0 mi North 10.4 mph - N/A   Clear
4:53 AM 33.1 °F 27.7 °F 27.0 °F 78% 30.04 in 10.0 mi North 5.8 mph - N/A   Partly Cloudy
5:53 AM 34.0 °F - 25.0 °F 70% 30.06 in 10.0 mi North - - N/A   Clear
6:53 AM 35.1 °F 27.9 °F 26.1 °F 70% 30.08 in 10.0 mi North 9.2 mph - N/A   Clear
7:53 AM 33.1 °F 26.9 °F 26.1 °F 75% 30.16 in 10.0 mi North 6.9 mph - N/A   Clear
8:53 AM 42.1 °F 36.6 °F 25.0 °F 51% 30.14 in 10.0 mi NW 9.2 mph - N/A   Partly Cloudy
9:53 AM 44.1 °F 37.7 °F 24.1 °F 45% 30.15 in 10.0 mi NNW 12.7 mph 20.7 mph N/A   Clear
10:53 AM 46.9 °F - 24.1 °F 41% 30.16 in 10.0 mi NW 15.0 mph 23.0 mph N/A   Clear
11:32 AM 48.0 °F - 21.9 °F 36% 30.50 in 0.8 mi NW 16.1 mph 25.3 mph N/A   Haze
11:39 AM 48.0 °F - 21.0 °F 34% 30.50 in 2.0 mi WNW 15.0 mph 23.0 mph N/A   Haze
11:46 AM 46.9 °F - 21.9 °F 37% 30.50 in 8.0 mi West 13.8 mph 25.3 mph N/A   Clear
11:53 AM 48.0 °F - 23.0 °F 37% 30.16 in 10.0 mi NW 16.1 mph 24.2 mph N/A   Clear
12:53 PM 50.0 °F - 24.1 °F 36% 30.15 in 3.0 mi WNW 12.7 mph 23.0 mph N/A   Haze
1:53 PM 53.1 °F - 21.9 °F 30% 30.12 in 3.0 mi NNW 17.3 mph 26.5 mph N/A   Haze
2:53 PM 55.9 °F - 21.9 °F 27% 30.12 in 9.0 mi NNW 10.4 mph 19.6 mph N/A   Clear
3:53 PM 55.9 °F - 19.0 °F 24% 30.12 in 10.0 mi NW 10.4 mph 20.7 mph N/A   Clear
4:53 PM 55.9 °F - 18.0 °F 23% 30.14 in 10.0 mi NW 12.7 mph 20.7 mph N/A   Clear
5:53 PM 55.9 °F - 18.0 °F 23% 30.15 in 10.0 mi NNW 11.5 mph 21.9 mph N/A   Clear
6:53 PM 52.0 °F - 19.0 °F 27% 30.17 in 10.0 mi North 9.2 mph - N/A   Clear
7:53 PM 45.0 °F 43.5 °F 19.9 °F 37% 30.26 in 10.0 mi North 3.5 mph - N/A   Clear
8:53 PM 39.9 °F 35.1 °F 19.9 °F 45% 30.25 in 10.0 mi NNE 6.9 mph - N/A   Clear
9:53 PM 37.0 °F 31.6 °F 19.0 °F 48% 30.26 in 10.0 mi NE 6.9 mph - N/A   Clear
10:53 PM 33.1 °F 26.9 °F 18.0 °F 54% 30.27 in 10.0 mi ENE 6.9 mph - N/A   Clear
11:53 PM 30.9 °F 26.2 °F 18.0 °F 59% 30.26 in 10.0 mi NE 4.6 mph - N/A   Clear